(395399) = 2011 SO112

Discovered at Campo Imperator on 2004-11-17 by CINEOS.

Orbit

Orbit type: Main Belt

Note: WebGL enabled browser required.

epoch2024-03-31.0
epoch JD2460400.5
perihelion date2026-01-03.71128
perihelion JD2461044.21128
argument of perihelion (°)95.35989
ascending node (°)236.10574
inclination (°)1.61241
eccentricity0.2620956
perihelion distance (AU)1.7392349
Tisserand w.r.t. Jupiter3.5
ΔV w.r.t. Earth (km/sec)8.2
semimajor axis (AU)2.3569920
mean anomaly (°)184.66937
mean daily motion (°/day)0.27237470
aphelion distance (AU)2.975
period (years)3.62
P-vector [x]0.87820342
P-vector [y]-0.44921040
P-vector [z]-0.16422172
Q-vector [x]0.47771668
Q-vector [y]0.80706272
Q-vector [z]0.34703969
absolute magnitude17.82
phase slope0.15
uncertainty0
referenceMPEC 2024-C107
observations used237
oppositions13
arc length (days)8566
first opposition used2000
last opposition used2024
residual rms (arc-secs)0.62
perturbers coarse indicatorM-v
perturbers precise indicator003Ek
first observation date used2000-08-27.0
last observation date used2024-02-09.0
computer nameMPCLINUX
JD of orbit computation2456819.499554
perihelion JD uncertainty (days)6.8897E-05
argument of perihelion uncertainty (°)2.1730E-04
ascending node uncertainty (°)2.1619E-04
inclination uncertainty (°)8.0254E-06
eccentricity uncertainty 8.0685E-08
perihelion distance uncertainty (AU)1.9819E-07
Minimum Orbit Intersection Distances (in AU)
for orbit epoch: 2460200.5, reference: E2024-CA7
Mercury1.33636
Venus1.01519
Earth0.72833
Mars0.3684
Jupiter2.39027
Saturn6.25503
Uranus15.486
Neptune27.4193

Observations

242 total observations over interval: 2000 08 27.04323 – 2024 02 09.375315
These data are available for download (format description).

Date (UT) J2000 RA J2000 Dec Magn Location Ref
2000 08 27.04323 21 29 51.07 -10 49 52.7 18.0 R 807 – Cerro Tololo Observatory, La Serena MPS 407785
2000 08 27.11018 21 29 48.13 -10 50 09.3   807 – Cerro Tololo Observatory, La Serena MPS 407785
2004 11 17.95774 04 03 55.61 +20 35 10.8 19.4 R 599 – Campo Imperatore-CINEOS MPS 396473
2004 11 17.96767 04 03 54.88 +20 35 08.0 19.4 R 599 – Campo Imperatore-CINEOS MPS 396473
2004 11 17.97760 04 03 54.19 +20 35 05.7 19.6 R 599 – Campo Imperatore-CINEOS MPS 396473
2004 11 17.98756 04 03 53.55 +20 35 03.2 19.2 R 599 – Campo Imperatore-CINEOS MPS 396473
2004 12 18.28133 03 35 03.65 +18 41 14.4 20.4 R G96 – Mt. Lemmon Survey MPS 396473
2004 12 18.29118 03 35 03.27 +18 41 13.1 20.1 R G96 – Mt. Lemmon Survey MPS 396473
2004 12 18.30106 03 35 02.95 +18 41 11.2 19.7 R G96 – Mt. Lemmon Survey MPS 396473
2004 12 18.31087 03 35 02.56 +18 41 09.9 19.8 R G96 – Mt. Lemmon Survey MPS 396473
2008 12 21.40789 07 26 51.61 +20 06 39.7 20.9 V G96 – Mt. Lemmon Survey MPS 396473
2008 12 21.41237 07 26 51.28 +20 06 40.3 21.2 V G96 – Mt. Lemmon Survey MPS 396473
2008 12 21.41686 07 26 51.03 +20 06 40.7 21.3 V G96 – Mt. Lemmon Survey MPS 396473
2008 12 21.42135 07 26 50.74 +20 06 41.1 21.3 V G96 – Mt. Lemmon Survey MPS 396473
2010 03 18.39947 12 12 43.16 -03 33 52.4 21.2 V G96 – Mt. Lemmon Survey MPS 396473
2010 03 18.40223 12 12 42.98 -03 33 51.2 21.5 V G96 – Mt. Lemmon Survey MPS 396473
2010 03 18.40500 12 12 42.80 -03 33 50.0 21.6 V G96 – Mt. Lemmon Survey MPS 396473
2010 03 18.40773 12 12 42.66 -03 33 49.1 21.2 V G96 – Mt. Lemmon Survey MPS 396473
2011 09 09.34947 00 47 00.60 +08 13 27.7   691 – Steward Observatory, Kitt Peak-Spacewatch MPS 394348
2011 09 09.36719 00 47 00.05 +08 13 24.7   691 – Steward Observatory, Kitt Peak-Spacewatch MPS 394348
2011 09 09.38491 00 46 59.50 +08 13 21.0   691 – Steward Observatory, Kitt Peak-Spacewatch MPS 394348
2011 09 20.17383 00 40 36.17 +07 27 26.9 19.6 V 691 – Steward Observatory, Kitt Peak-Spacewatch MPS 392945
2011 09 20.19155 00 40 35.38 +07 27 21.3 19.6 V 691 – Steward Observatory, Kitt Peak-Spacewatch MPS 392945
2011 09 20.20986 00 40 34.57 +07 27 15.7 19.5 V 691 – Steward Observatory, Kitt Peak-Spacewatch MPS 392945
2011 09 20.38669 00 40 26.36 +07 26 19.9 19.2 V 703 – Catalina Sky Survey MPS 392945
2011 09 20.39346 00 40 26.11 +07 26 17.5 19.0 V 703 – Catalina Sky Survey MPS 392945
2011 09 20.40032 00 40 25.78 +07 26 15.5 19.2 V 703 – Catalina Sky Survey MPS 392945
2011 09 20.40715 00 40 25.50 +07 26 12.7 19.4 V 703 – Catalina Sky Survey MPS 392945
2011 09 23.19360 00 38 23.06 +07 10 40.1 19.5 V 691 – Steward Observatory, Kitt Peak-Spacewatch MPS 392945
2011 09 23.21134 00 38 22.21 +07 10 34.1 19.4 V 691 – Steward Observatory, Kitt Peak-Spacewatch MPS 392945
2011 09 23.22908 00 38 21.36 +07 10 28.0 19.4 V 691 – Steward Observatory, Kitt Peak-Spacewatch MPS 392945
2011 09 28.32474 00 34 22.98 +06 39 28.2 19.0 V G96 – Mt. Lemmon Survey MPS 392945
2011 09 28.33273 00 34 22.58 +06 39 25.3 19.0 V G96 – Mt. Lemmon Survey MPS 392945
2011 09 28.34076 00 34 22.15 +06 39 22.1 19.0 V G96 – Mt. Lemmon Survey MPS 392945
2011 09 28.34883 00 34 21.75 +06 39 19.1 19.0 V G96 – Mt. Lemmon Survey MPS 392945
2011 10 16.16581 00 21 26.03 +04 46 49.7 19.6 V 691 – Steward Observatory, Kitt Peak-Spacewatch MPS 395161
2011 10 16.23335 00 21 23.46 +04 46 27.1 19.6 V 691 – Steward Observatory, Kitt Peak-Spacewatch MPS 395161
2011 10 16.30085 00 21 20.87 +04 46 04.1 19.6 V 691 – Steward Observatory, Kitt Peak-Spacewatch MPS 395161
2011 10 21.10048 00 18 52.98 +04 20 32.4 19.8 V 691 – Steward Observatory, Kitt Peak-Spacewatch MPS 395161
2011 10 21.11381 00 18 52.60 +04 20 29.0 20.1 V 691 – Steward Observatory, Kitt Peak-Spacewatch MPS 395161
2011 10 21.14021 00 18 51.81 +04 20 20.6 20.3 V 691 – Steward Observatory, Kitt Peak-Spacewatch MPS 395161
2011 10 21.26935 00 18 47.87 +04 19 43.5 20.1   704 – Lincoln Laboratory ETS, New Mexico MPS 396473
2011 10 21.28110 00 18 47.53 +04 19 39.2 20.1   704 – Lincoln Laboratory ETS, New Mexico MPS 396473
2011 10 21.29285 00 18 47.08 +04 19 36.2 20.1   704 – Lincoln Laboratory ETS, New Mexico MPS 396473
2011 10 21.30459 00 18 46.76 +04 19 31.8 19.8   704 – Lincoln Laboratory ETS, New Mexico MPS 396473
2011 10 23.08731 00 18 02.63 +04 11 04.7 20.1 V 691 – Steward Observatory, Kitt Peak-Spacewatch MPS 396473
2011 10 23.10335 00 18 02.21 +04 11 00.8 20.1 V 691 – Steward Observatory, Kitt Peak-Spacewatch MPS 396473
2011 10 23.15033 00 18 00.91 +04 10 46.6 19.7 V 691 – Steward Observatory, Kitt Peak-Spacewatch MPS 396473
2014 04 05.47983 14 50 29.976 -17 22 46.06 21.5 w F51 – Pan-STARRS 1, Haleakala MPS 509834
2014 04 05.49171 14 50 29.494 -17 22 43.88 21.6 w F51 – Pan-STARRS 1, Haleakala MPS 509834
2014 04 05.51551 14 50 28.585 -17 22 39.75 21.4 w F51 – Pan-STARRS 1, Haleakala MPS 509834
2014 04 23.24509 14 36 04.74 -16 09 40.1 21.4 V W84 – Cerro Tololo-DECam MPS 511165
2014 04 23.24532 14 36 04.74 -16 09 40.1 20.9 V W84 – Cerro Tololo-DECam MPS 790383
2014 04 23.24826 14 36 04.55 -16 09 39.1 21.4 V W84 – Cerro Tololo-DECam MPS 511165
2014 04 23.24849 14 36 04.54 -16 09 39.1   W84 – Cerro Tololo-DECam MPS 790383
2014 04 23.25145 14 36 04.35 -16 09 38.1 21.4 V W84 – Cerro Tololo-DECam MPS 511165
2014 04 23.25168 14 36 04.35 -16 09 38.1   W84 – Cerro Tololo-DECam MPS 790383
2014 04 23.25461 14 36 04.16 -16 09 37.1 21.4 V W84 – Cerro Tololo-DECam MPS 511165
2014 04 23.25484 14 36 04.16 -16 09 37.1   W84 – Cerro Tololo-DECam MPS 790383
2014 04 23.25777 14 36 03.97 -16 09 36.2 21.4 V W84 – Cerro Tololo-DECam MPS 511165
2014 04 23.25800 14 36 03.97 -16 09 36.2   W84 – Cerro Tololo-DECam MPS 790383
2014 04 24.26709 14 35 04.57 -16 04 22.9 20.9   W84 – Cerro Tololo-DECam MPS 790383
2014 04 24.27026 14 35 04.38 -16 04 22.0   W84 – Cerro Tololo-DECam MPS 790383
2014 04 24.27344 14 35 04.18 -16 04 21.0   W84 – Cerro Tololo-DECam MPS 790383
2014 04 24.27662 14 35 03.98 -16 04 19.9   W84 – Cerro Tololo-DECam MPS 790383
2014 04 24.27981 14 35 03.79 -16 04 18.9   W84 – Cerro Tololo-DECam MPS 790383
2014 04 25.28366 14 34 04.01 -15 59 01.9 20.9 V W84 – Cerro Tololo-DECam MPS 790383
2014 04 25.28684 14 34 03.81 -15 59 00.9   W84 – Cerro Tololo-DECam MPS 790383
2014 04 25.29007 14 34 03.61 -15 58 59.9   W84 – Cerro Tololo-DECam MPS 790383
2014 04 25.29329 14 34 03.41 -15 58 58.8   W84 – Cerro Tololo-DECam MPS 790383
2014 04 25.29651 14 34 03.21 -15 58 57.8   W84 – Cerro Tololo-DECam MPS 790383
2014 04 26.23362 14 33 06.98 -15 53 57.5 20.7 V W84 – Cerro Tololo-DECam MPS 790383
2014 04 26.23679 14 33 06.79 -15 53 56.5   W84 – Cerro Tololo-DECam MPS 790383
2014 04 26.23996 14 33 06.59 -15 53 55.5   W84 – Cerro Tololo-DECam MPS 790383
2014 04 26.24311 14 33 06.39 -15 53 54.4   W84 – Cerro Tololo-DECam MPS 790383
2014 04 26.24629 14 33 06.19 -15 53 53.4   W84 – Cerro Tololo-DECam MPS 790383
2014 05 09.36193 14 19 38.059 -14 39 08.90 20.9 i F51 – Pan-STARRS 1, Haleakala MPS 513888
2014 05 09.37459 14 19 37.257 -14 39 04.21 20.6 i F51 – Pan-STARRS 1, Haleakala MPS 513888
2014 05 09.38728 14 19 36.455 -14 38 59.92 20.6 i F51 – Pan-STARRS 1, Haleakala MPS 513888
2014 05 09.39995 14 19 35.672 -14 38 55.82 20.6 i F51 – Pan-STARRS 1, Haleakala MPS 513888
2014 05 21.33438 14 08 28.709 -13 32 13.71 21.1 w F51 – Pan-STARRS 1, Haleakala MPS 516430
2014 05 21.34788 14 08 28.008 -13 32 09.46 21.2 w F51 – Pan-STARRS 1, Haleakala MPS 516430
2014 05 21.36136 14 08 27.293 -13 32 05.26 21.2 w F51 – Pan-STARRS 1, Haleakala MPS 516430
2014 05 21.37481 14 08 26.603 -13 32 01.09 21.0 w F51 – Pan-STARRS 1, Haleakala MPS 516430
2014 05 27.33428 14 03 54.813 -13 03 01.95 21.2 w F51 – Pan-STARRS 1, Haleakala MPS 517887
2014 05 27.34537 14 03 54.324 -13 02 58.82 21.2 w F51 – Pan-STARRS 1, Haleakala MPS 517887
2014 05 27.35646 14 03 53.846 -13 02 55.76 21.1 w F51 – Pan-STARRS 1, Haleakala MPS 517887
2014 05 27.36756 14 03 53.366 -13 02 52.75 21.2 w F51 – Pan-STARRS 1, Haleakala MPS 517887
2015 12 08.49577 05 27 58.902 +22 08 48.50 20.4 w F51 – Pan-STARRS 1, Haleakala MPS 659596
2015 12 08.50779 05 27 58.011 +22 08 47.33 20.4 w F51 – Pan-STARRS 1, Haleakala MPS 659596
2015 12 08.51969 05 27 57.124 +22 08 46.03 20.5 w F51 – Pan-STARRS 1, Haleakala MPS 659596
